THOR 6

Last updated on Mon Oct 14 2024 00:02:38 GMT+0000 (Coordinated Universal Time)

1 36033U 09058B 24287.33488799 -.00000011 00000+0 00000+0 0 9992 2 36033 0.0298 109.4553 0001792 92.0217 300.6673 1.00271862 54879
UTC large
Height (km)
Speed (km/s)
/
Latitude / Longitude
Inclination (degrees)
Orbital Period (minutes)
Azimuth
Elevation
Range (km)
Doppler Factor

Next 0 passes for location: London (51.5072 / 0.1276)

Sorry there are no passes over London.